Cherry Point, NC

6:10 AM EDT on March 28, 2017 (GMT -0400)
Cherry Point Marine Corps Air Station

Weather History for KNKT - December, 2013

Change the Weather History Date:

Tuesday, December 24, 2013

  Actual Average Record
Temperature  
Mean Temperature 50 °F -  
Max Temperature 57 °F 53 °F 78 °F (2015)
Min Temperature 42 °F 33 °F 24 °F (2000)
Degree Days  
Heating Degree Days 16    
Moisture  
Dew Point 40 °F    
Average Humidity 79    
Maximum Humidity 90    
Minimum Humidity 54    
Precipitation  
Precipitation 0.24 in - - ()
Sea Level Pressure  
Sea Level Pressure 30.16 in    
Wind  
Wind Speed 16 mph (North)    
Max Wind Speed 22 mph    
Max Gust Speed 29 mph    
Visibility 8 miles    
Events Rain    
Averages and records for this station are not official NWS values.
T = Trace of Precipitation, MM = Missing Value Source: NWS Daily Summary

Daily Weather History Graph

Daily Weather History Graph

Search for Another Location

Airport or City:

Trip Planner

Search our weather history database for the weather conditions in past years. The results will help you decide how hot, cold, wet, or windy it might be!

Date:

Astronomy

Dec. 24, 2013 Rise Set
Actual Time 7:12 AM EST 5:01 PM EST
Civil Twilight 6:44 AM EST 5:29 PM EST
Nautical Twilight 6:13 AM EST 6:01 PM EST
Astronomical Twilight 5:42 AM EST 6:32 PM EST
Moon 11:52 PM EST (12/24) 11:20 AM EST (12/24)
Length of Visible Light 10h 45m
Length of Day
9h 48m
Waning Gibbous, 59% of the Moon is Illuminated
Dec 24
Waning Gibbous
Dec 25
Last Quarter
Jan 1
New
Jan 7
First Quarter
Jan 15
Full

Hourly Weather History & Observations

Time (EST) Temp. Windchill Dew Point Humidity Pressure Visibility Wind Dir Wind Speed Gust Speed Precip Events Conditions
12:01 AM 57.9 °F - 55.0 °F 90% 30.08 in 10.0 mi North 18.4 mph - 0.00 in Rain Light Rain
12:46 AM 53.1 °F - 48.9 °F 86% 30.09 in 4.0 mi NNE 21.9 mph 28.8 mph 0.02 in Rain Light Rain
12:54 AM 52.0 °F - 48.9 °F 89% 30.09 in 3.0 mi NNE 19.6 mph 26.5 mph 0.02 in Rain Light Rain
1:22 AM 52.0 °F - 48.9 °F 89% 30.09 in 4.0 mi NE 12.7 mph - 0.00 in Rain Light Rain
1:54 AM 52.0 °F - 48.9 °F 89% 30.06 in 8.0 mi NE 9.2 mph - 0.00 in Rain Light Rain
2:54 AM 50.0 °F - 46.9 °F 89% 30.08 in 7.0 mi NNE 15.0 mph 25.3 mph 0.01 in Rain Light Rain
3:12 AM 48.9 °F - 45.0 °F 86% 30.09 in 6.0 mi NNE 17.3 mph - 0.01 in Rain Light Rain
3:19 AM 48.0 °F - 45.0 °F 89% 30.09 in 7.0 mi North 15.0 mph - 0.02 in Rain Light Rain
3:30 AM 48.0 °F - 45.0 °F 89% 30.07 in 5.0 mi NNE 18.4 mph - 0.03 in Rain Light Rain
3:54 AM 48.0 °F - 45.0 °F 89% 30.09 in 5.0 mi North 11.5 mph - 0.05 in Rain Light Rain
4:32 AM 46.9 °F - 44.1 °F 90% 30.08 in 2.5 mi North 15.0 mph - 0.06 in Rain Light Rain
4:40 AM 46.9 °F - 44.1 °F 90% 30.08 in 4.0 mi North 17.3 mph - 0.07 in Rain Light Rain
4:54 AM 46.9 °F - 43.0 °F 86% 30.07 in 6.0 mi North 19.6 mph 27.6 mph 0.07 in Rain Light Rain
5:54 AM 46.0 °F 39.9 °F 43.0 °F 89% 30.08 in 8.0 mi North 13.8 mph - 0.03 in Rain Light Rain
6:01 AM 46.0 °F 39.6 °F 42.1 °F 86% 30.11 in 7.0 mi North 15.0 mph - 0.00 in Rain Light Rain
6:54 AM 45.0 °F 38.9 °F 42.1 °F 90% 30.12 in 4.0 mi North 12.7 mph - 0.06 in Rain Light Rain
7:03 AM 45.0 °F 38.9 °F 42.1 °F 90% 30.12 in 5.0 mi NNE 12.7 mph - 0.00 in Rain Light Rain
7:54 AM 44.1 °F 36.2 °F 39.9 °F 85% 30.17 in 10.0 mi North 18.4 mph 24.2 mph 0.00 in Rain Light Rain
8:34 AM 43.0 °F 35.7 °F 39.9 °F 89% 30.18 in 10.0 mi North 15.0 mph - 0.00 in Rain Light Rain
8:51 AM 42.8 °F 36.6 °F 39.2 °F 87% 30.19 in 10.0 mi North 11.5 mph - 0.00 in Rain Light Rain
8:54 AM 43.0 °F 37.2 °F 39.0 °F 86% 30.18 in 10.0 mi North 10.4 mph - 0.00 in Rain Light Rain
9:01 AM 43.0 °F 35.4 °F 39.0 °F 86% 30.19 in 10.0 mi North 16.1 mph - 0.00 in Rain Light Rain
9:10 AM 43.0 °F 35.4 °F 39.0 °F 86% 30.19 in 10.0 mi North 16.1 mph - 0.00 in Rain Light Rain
9:54 AM 43.0 °F 36.0 °F 37.0 °F 80% 30.20 in 10.0 mi North 13.8 mph - 0.00 in Rain Light Rain
10:15 AM 44.1 °F 36.5 °F 37.0 °F 76% 30.21 in 10.0 mi North 17.3 mph 24.2 mph 0.00 in   Overcast
10:54 AM 44.1 °F 36.8 °F 37.0 °F 76% 30.20 in 10.0 mi NNW 16.1 mph - 0.00 in   Overcast
11:54 AM 44.1 °F 36.8 °F 36.0 °F 73% 30.20 in 10.0 mi NNW 16.1 mph - N/A   Mostly Cloudy
12:54 PM 46.9 °F - 36.0 °F 66% 30.18 in 10.0 mi North 13.8 mph - N/A   Scattered Clouds
1:54 PM 48.0 °F - 36.0 °F 63% 30.19 in 10.0 mi NNW 13.8 mph - N/A   Partly Cloudy
2:54 PM 48.9 °F - 34.0 °F 56% 30.21 in 10.0 mi NNW 13.8 mph - N/A   Clear
3:54 PM 48.0 °F - 32.0 °F 54% 30.22 in 10.0 mi NNW 12.7 mph - N/A   Clear
4:54 PM 46.0 °F 40.6 °F 30.9 °F 56% 30.26 in 10.0 mi NNW 11.5 mph - N/A   Clear
5:54 PM 44.1 °F 37.7 °F 28.9 °F 55% 30.29 in 10.0 mi North 12.7 mph - N/A   Clear
6:54 PM 44.1 °F 37.7 °F 30.0 °F 58% 30.32 in 10.0 mi North 12.7 mph - N/A   Clear
7:54 PM 43.0 °F 37.2 °F 28.9 °F 58% 30.35 in 10.0 mi North 10.4 mph - N/A   Clear
8:54 PM 42.1 °F 35.7 °F 27.0 °F 55% 30.36 in 10.0 mi North 11.5 mph - N/A   Clear